Home   Weather   Rheda-Wiedenbrück   Past weeks

Flag for Germany Past Weather in Rheda-Wiedenbrück, North Rhine-Westphalia, Germany — Yesterday and Last 2 Weeks

Now
45 °F

Sunny.


Feels Like: 38 °F
Forecast: 36 / 47 °F
Wind: 14 mph from Southwest

Location: Paderborn / Lippstadt

Current Time: Apr 24, 2017 at 9:39:15 am

Latest Report: Apr 24, 2017 at 8:50 am


Visibility: 10 mi

Pressure: 30.04 "Hg

Humidity: 61%

Dew Point: 32 °F

Location of Rheda-WiedenbrückLocation

Past Weather in Rheda-Wiedenbrück — Graph

°F

Rheda-Wiedenbrück Temperature Yesterday

Maximum temperature yesterday: 48 °F (at 4:50 pm)
Minimum temperature yesterday: 37 °F (at 12:50 am)
Average temperature yesterday: 41 °F

High & Low Weather Summary for the Past Weeks

 TemperatureHumidityPressure
High54 °F (Apr 21, 2:50 pm)100% (Apr 22, 3:50 am)30.60 "Hg (Apr 22, 3:50 am)
Low27 °F (Apr 20, 5:50 am)34% (Apr 20, 6:20 pm)30.07 "Hg (Apr 24, 6:20 am)
Average42 °F63%30.34 "Hg
* Reported Apr 19 8:50 am — Apr 24 8:20 am, Rheda-Wiedenbrück, Weather by CustomWeather, © 2017

Note: Actual official high and low records may vary slightly from our data, if they occured in-between our weather recording intervals... More about our weather records

Advertising

Rheda-Wiedenbrück Weather History for the Previous 24 Hours

Scroll right to see more
 ConditionsComfort  
Time TempWeatherWind HumidityBarometerVisibility
8:20 am
Mon, Apr 24
41 °FSunny.13 mph66%30.07 "Hg10 mi
7:50 am39 °FSunny.13 mph70%30.07 "Hg10 mi
7:20 am39 °FSunny.13 mph65%30.07 "Hg10 mi
6:50 am37 °FSunny.10 mph75%30.07 "Hg10 mi
6:20 am37 °FSunny.10 mph75%30.07 "Hg10 mi
5:50 am37 °FClear.12 mph75%30.09 "Hg10 mi
5:20 am36 °FClear.10 mph81%30.09 "Hg10 mi
4:20 am37 °FClear.8 mph81%30.12 "Hg10 mi
3:50 am37 °FClear.9 mph81%30.12 "Hg10 mi
3:20 am37 °FPassing clouds.9 mph81%30.15 "HgN/A
2:50 am37 °FPassing clouds.9 mph81%30.15 "HgN/A
2:20 am37 °FPassing clouds.9 mph81%30.15 "HgN/A
1:50 am39 °FPassing clouds.8 mph75%30.18 "HgN/A
1:20 am39 °FClear.8 mph75%30.18 "Hg10 mi
12:50 am39 °FClear.8 mph75%30.18 "Hg10 mi
12:20 am34 °FClear.6 mph81%30.21 "Hg10 mi
11:50 pm
Sun, Apr 23
37 °FPassing clouds.5 mph70%30.21 "HgN/A
11:20 pm39 °FClear.3 mph70%30.21 "Hg10 mi
10:50 pm39 °FClear.5 mph70%30.21 "Hg10 mi
10:20 pm39 °FClear.3 mph70%30.21 "Hg10 mi
9:50 pm41 °FClear.3 mph66%30.21 "Hg10 mi
8:50 pm43 °FPassing clouds.5 mph61%30.21 "HgN/A
8:20 pm45 °FPassing clouds.7 mph57%30.21 "HgN/A
7:50 pm45 °FScattered clouds.8 mph57%30.21 "HgN/A
7:20 pm46 °FScattered clouds.8 mph53%30.21 "HgN/A
6:50 pm46 °FScattered clouds.10 mph50%30.21 "HgN/A
6:20 pm46 °FScattered clouds.13 mph50%30.18 "HgN/A
5:50 pm46 °FScattered clouds.13 mph50%30.21 "HgN/A
5:20 pm46 °FScattered clouds.10 mph50%30.21 "HgN/A
4:50 pm48 °FScattered clouds.9 mph54%30.21 "HgN/A
4:20 pm45 °FScattered showers. Partly sunny.7 mph66%30.21 "HgN/A
3:20 pm46 °FScattered showers. Partly sunny.12 mph53%30.21 "HgN/A
2:50 pm45 °FScattered clouds.10 mph57%30.21 "HgN/A
2:20 pm45 °FScattered clouds.10 mph57%30.21 "HgN/A
1:50 pm45 °FPartly sunny.12 mph53%30.21 "HgN/A
1:20 pm45 °FPartly sunny.13 mph57%30.21 "HgN/A
12:50 pm45 °FPartly sunny.9 mph57%30.24 "HgN/A
12:20 pm45 °FPartly sunny.12 mph57%30.24 "HgN/A
11:50 am43 °FPartly sunny.9 mph57%30.24 "HgN/A
11:20 am43 °FPartly sunny.10 mph61%30.24 "HgN/A
10:50 am43 °FPartly sunny.9 mph61%30.24 "HgN/A
10:20 am45 °FPartly sunny.10 mph66%30.24 "HgN/A
9:50 am43 °FPartly sunny.8 mph71%30.24 "HgN/A
9:20 am39 °FPartly sunny.8 mph81%30.24 "HgN/A
Weather by CustomWeather, © 2017

See weather overviewHow to use our weather pages